"Sample Date","Sample Time","Sample Value","Units","Flow Rate","Number Channels","Micron Size 0","Counts/Channel 0","Micron Size 1","Counts/Channel 1","Micron Size 2","Counts/Channel 2","Micron Size 3","Counts/Channel 3","Micron Size 4","Counts/Channel 4","Micron Size 5","Counts/Channel 5","Micron Size 6","Counts/Channel 6","Micron Size 7","Counts/Channel 7","Micron Size 8","Counts/Channel 8","Micron Size 9","Counts/Channel 9","Micron Size 10","Counts/Channel 10","Micron Size 11","Counts/Channel 11","Micron Size 12","Counts/Channel 12","Micron Size 13","Counts/Channel 13","Micron Size 14","Counts/Channel 14","Micron Size 15","Counts/Channel 15","Micron Size 16","Counts/Channel 16","Micron Size 17","Counts/Channel 17","Micron Size 18","Counts/Channel 18","Micron Size 19","Counts/Channel 19","Micron Size 20","Counts/Channel 20","Micron Size 21","Counts/Channel 21","Micron Size 22","Counts/Channel 22","Micron Size 23","Counts/Channel 23","Micron Size 24","Counts/Channel 24","Micron Size 25","Counts/Channel 25","Micron Size 26","Counts/Channel 26","Micron Size 27","Counts/Channel 27","Micron Size 28","Counts/Channel 28","Micron Size 29","Counts/Channel 29","Micron Size 30","Counts/Channel 30","Micron Size 31","Counts/Channel 31"
"05/07/08","22:00:01",259.000,"cc",28308.316,6,0.100,215.000,0.200,38.000,0.300,4.000,0.500,2.000,1.000,0,5.000,0
"05/07/08","22:00:07",302.000,"cc",28343.285,6,0.100,256.000,0.200,36.000,0.300,10.000,0.500,0,1.000,0,5.000,0
"05/07/08","22:00:13",268.000,"cc",28334.711,6,0.100,225.000,0.200,34.000,0.300,8.000,0.500,1.000,1.000,0,5.000,0
"05/07/08","22:00:19",297.000,"cc",28320.035,6,0.100,259.000,0.200,34.000,0.300,4.000,0.500,0,1.000,0,5.000,0
"05/07/08","22:00:25",362.000,"cc",28337.315,6,0.100,295.000,0.200,55.000,0.300,9.000,0.500,3.000,1.000,0,5.000,0
"05/07/08","22:00:31",378.000,"cc",28351.029,6,0.100,302.000,0.200,66.000,0.300,10.000,0.500,0,1.000,0,5.000,0
"05/07/08","22:00:37",322.000,"cc",28264.391,6,0.100,261.000,0.200,58.000,0.300,3.000,0.500,0,1.000,0,5.000,0
"05/07/08","22:00:43",319.000,"cc",28363.779,6,0.100,266.000,0.200,46.000,0.300,4.000,0.500,3.000,1.000,0,5.000,0
"05/07/08","22:00:49",235.000,"cc",28304.223,6,0.100,201.000,0.200,30.000,0.300,4.000,0.500,0,1.000,0,5.000,0
"05/07/08","22:00:55",247.000,"cc",28358.887,6,0.100,202.000,0.200,39.000,0.300,5.000,0.500,0,1.000,1.000,5.000,0
"05/07/08","22:01:01",263.000,"cc",28278.207,6,0.100,223.000,0.200,34.000,0.300,5.000,0.500,0,1.000,1.000,5.000,0
"05/07/08","22:01:07",252.000,"cc",28333.639,6,0.100,208.000,0.200,39.000,0.300,4.000,0.500,1.000,1.000,0,5.000,0
"05/07/08","22:01:13",417.000,"cc",28350.225,6,0.100,353.000,0.200,55.000,0.300,7.000,0.500,2.000,1.000,0,5.000,0
"05/07/08","22:01:19",371.000,"cc",28293.445,6,0.100,312.000,0.200,52.000,0.300,6.000,0.500,1.000,1.000,0,5.000,0
"05/07/08","22:01:25",308.000,"cc",28290.742,6,0.100,275.000,0.200,32.000,0.300,1.000,0.500,0,1.000,0,5.000,0
"05/07/08","22:01:31",251.000,"cc",28328.338,6,0.100,215.000,0.200,34.000,0.300,2.000,0.500,0,1.000,0,5.000,0
"05/07/08","22:01:37",273.000,"cc",28345.758,6,0.100,234.000,0.200,29.000,0.300,7.000,0.500,3.000,1.000,0,5.000,0
"05/07/08","22:01:43",245.000,"cc",28350.184,6,0.100,206.000,0.200,33.000,0.300,5.000,0.500,1.000,1.000,0,5.000,0
"05/07/08","22:01:49",218.000,"cc",28286.678,6,0.100,173.000,0.200,41.000,0.300,4.000,0.500,0,1.000,0,5.000,0
"05/07/08","22:01:55",244.000,"cc",28265.690,6,0.100,200.000,0.200,41.000,0.300,3.000,0.500,0,1.000,0,5.000,0
"05/07/08","22:02:01",309.000,"cc",28298.272,6,0.100,260.000,0.200,45.000,0.300,4.000,0.500,0,1.000,0,5.000,0
"05/07/08","22:02:07",323.000,"cc",28318.307,6,0.100,266.000,0.200,51.000,0.300,5.000,0.500,0,1.000,1.000,5.000,0
"05/07/08","22:02:13",352.000,"cc",28327.627,6,0.100,308.000,0.200,39.000,0.300,4.000,0.500,1.000,1.000,0,5.000,0
"05/07/08","22:02:19",338.000,"cc",28281.406,6,0.100,293.000,0.200,39.000,0.300,5.000,0.500,1.000,1.000,0,5.000,0
"05/07/08","22:02:25",301.000,"cc",28396.268,6,0.100,247.000,0.200,49.000,0.300,5.000,0.500,0,1.000,0,5.000,0
"05/07/08","22:02:31",277.000,"cc",28284.147,6,0.100,229.000,0.200,44.000,0.300,4.000,0.500,0,1.000,0,5.000,0
"05/07/08","22:02:37",246.000,"cc",28324.959,6,0.100,206.000,0.200,33.000,0.300,7.000,0.500,0,1.000,0,5.000,0
"05/07/08","22:02:43",220.000,"cc",28324.852,6,0.100,190.000,0.200,24.000,0.300,4.000,0.500,1.000,1.000,1.000,5.000,0
"05/07/08","22:02:49",206.000,"cc",28316.397,6,0.100,178.000,0.200,25.000,0.300,3.000,0.500,0,1.000,0,5.000,0
"05/07/08","22:02:55",209.000,"cc",28267.227,6,0.100,174.000,0.200,33.000,0.300,2.000,0.500,0,1.000,0,5.000,0
"05/07/08","22:03:01",220.000,"cc",28311.205,6,0.100,187.000,0.200,29.000,0.300,4.000,0.500,0,1.000,0,5.000,0
"05/07/08","22:03:07",195.000,"cc",28336.578,6,0.100,168.000,0.200,26.000,0.300,1.000,0.500,0,1.000,0,5.000,0
"05/07/08","22:03:13",219.000,"cc",28323.682,6,0.100,182.000,0.200,33.000,0.300,4.000,0.500,0,1.000,0,5.000,0
"05/07/08","22:03:19",186.000,"cc",28343.193,6,0.100,160.000,0.200,20.000,0.300,5.000,0.500,0,1.000,1.000,5.000,0
"05/07/08","22:03:25",235.000,"cc",28327.617,6,0.100,193.000,0.200,37.000,0.300,5.000,0.500,0,1.000,0,5.000,0
"05/07/08","22:03:31",225.000,"cc",28259.703,6,0.100,185.000,0.200,36.000,0.300,2.000,0.500,2.000,1.000,0,5.000,0
"05/07/08","22:03:37",218.000,"cc",28286.510,6,0.100,181.000,0.200,29.000,0.300,7.000,0.500,0,1.000,1.000,5.000,0
"05/07/08","22:03:43",232.000,"cc",28333.799,6,0.100,204.000,0.200,25.000,0.300,3.000,0.500,0,1.000,0,5.000,0
"05/07/08","22:03:49",178.000,"cc",28307.721,6,0.100,145.000,0.200,29.000,0.300,2.000,0.500,2.000,1.000,0,5.000,0
"05/07/08","22:03:55",200.000,"cc",28317.106,6,0.100,167.000,0.200,32.000,0.300,1.000,0.500,0,1.000,0,5.000,0
"05/07/08","22:04:01",187.000,"cc",28355.387,6,0.100,165.000,0.200,19.000,0.300,3.000,0.500,0,1.000,0,5.000,0
"05/07/08","22:04:07",158.000,"cc",28274.268,6,0.100,138.000,0.200,17.000,0.300,3.000,0.500,0,1.000,0,5.000,0
"05/07/08","22:04:13",171.000,"cc",28326.908,6,0.100,145.000,0.200,22.000,0.300,3.000,0.500,1.000,1.000,0,5.000,0
"05/07/08","22:04:19",176.000,"cc",28307.465,6,0.100,156.000,0.200,18.000,0.300,2.000,0.500,0,1.000,0,5.000,0
"05/07/08","22:04:25",178.000,"cc",28350.629,6,0.100,149.000,0.200,25.000,0.300,2.000,0.500,2.000,1.000,0,5.000,0
"05/07/08","22:04:31",138.000,"cc",28333.707,6,0.100,105.000,0.200,29.000,0.300,3.000,0.500,1.000,1.000,0,5.000,0
"05/07/08","22:04:37",151.000,"cc",28311.348,6,0.100,141.000,0.200,10.000,0.300,0,0.500,0,1.000,0,5.000,0
"05/07/08","22:04:43",157.000,"cc",28279.779,6,0.100,133.000,0.200,20.000,0.300,3.000,0.500,1.000,1.000,0,5.000,0
"05/07/08","22:04:49",136.000,"cc",28334.420,6,0.100,115.000,0.200,19.000,0.300,2.000,0.500,0,1.000,0,5.000,0
"05/07/08","22:04:55",156.000,"cc",28318.256,6,0.100,131.000,0.200,20.000,0.300,2.000,0.500,3.000,1.000,0,5.000,0
"05/07/08","22:05:01",165.000,"cc",28295.875,6,0.100,135.000,0.200,26.000,0.300,4.000,0.500,0,1.000,0,5.000,0
"05/07/08","22:05:07",154.000,"cc",28313.338,6,0.100,135.000,0.200,18.000,0.300,1.000,0.500,0,1.000,0,5.000,0
"05/07/08","22:05:13",163.000,"cc",28290.801,6,0.100,145.000,0.200,16.000,0.300,2.000,0.500,0,1.000,0,5.000,0
"05/07/08","22:05:19",149.000,"cc",28317.031,6,0.100,129.000,0.200,18.000,0.300,2.000,0.500,0,1.000,0,5.000,0
"05/07/08","22:05:25",125.000,"cc",28312.213,6,0.100,111.000,0.200,11.000,0.300,3.000,0.500,0,1.000,0,5.000,0
"05/07/08","22:05:31",130.000,"cc",28315.190,6,0.100,114.000,0.200,13.000,0.300,2.000,0.500,1.000,1.000,0,5.000,0
"05/07/08","22:05:37",117.000,"cc",28317.481,6,0.100,100.000,0.200,14.000,0.300,3.000,0.500,0,1.000,0,5.000,0
"05/07/08","22:05:43",122.000,"cc",28362.135,6,0.100,105.000,0.200,14.000,0.300,3.000,0.500,0,1.000,0,5.000,0
"05/07/08","22:05:49",123.000,"cc",28334.922,6,0.100,96.000,0.200,24.000,0.300,1.000,0.500,2.000,1.000,0,5.000,0
"05/07/08","22:05:55",91.000,"cc",28316.270,6,0.100,81.000,0.200,8.000,0.300,2.000,0.500,0,1.000,0,5.000,0
"05/07/08","22:06:01",119.000,"cc",28281.383,6,0.100,97.000,0.200,15.000,0.300,7.000,0.500,0,1.000,0,5.000,0
"05/07/08","22:06:07",114.000,"cc",28336.322,6,0.100,94.000,0.200,15.000,0.300,4.000,0.500,1.000,1.000,0,5.000,0
"05/07/08","22:06:13",99.000,"cc",28372.588,6,0.100,87.000,0.200,9.000,0.300,2.000,0.500,1.000,1.000,0,5.000,0
"05/07/08","22:06:19",99.000,"cc",28287.137,6,0.100,85.000,0.200,14.000,0.300,0,0.500,0,1.000,0,5.000,0
"05/07/08","22:06:25",102.000,"cc",28324.877,6,0.100,83.000,0.200,14.000,0.300,3.000,0.500,2.000,1.000,0,5.000,0
"05/07/08","22:06:31",85.000,"cc",28286.529,6,0.100,67.000,0.200,17.000,0.300,0,0.500,1.000,1.000,0,5.000,0
"05/07/08","22:06:37",98.000,"cc",28260.727,6,0.100,79.000,0.200,17.000,0.300,2.000,0.500,0,1.000,0,5.000,0
"05/07/08","22:06:43",85.000,"cc",28305.674,6,0.100,77.000,0.200,8.000,0.300,0,0.500,0,1.000,0,5.000,0
"05/07/08","22:06:49",96.000,"cc",28372.637,6,0.100,81.000,0.200,14.000,0.300,1.000,0.500,0,1.000,0,5.000,0
"05/07/08","22:06:55",67.000,"cc",28341.588,6,0.100,58.000,0.200,8.000,0.300,1.000,0.500,0,1.000,0,5.000,0
"05/07/08","22:07:01",72.000,"cc",28323.699,6,0.100,62.000,0.200,9.000,0.300,1.000,0.500,0,1.000,0,5.000,0
"05/07/08","22:07:07",67.000,"cc",28286.566,6,0.100,55.000,0.200,7.000,0.300,4.000,0.500,1.000,1.000,0,5.000,0
"05/07/08","22:07:13",63.000,"cc",28252.217,6,0.100,52.000,0.200,8.000,0.300,3.000,0.500,0,1.000,0,5.000,0
"05/07/08","22:07:19",81.000,"cc",28271.826,6,0.100,70.000,0.200,9.000,0.300,1.000,0.500,1.000,1.000,0,5.000,0
"05/07/08","22:07:25",65.000,"cc",28350.047,6,0.100,57.000,0.200,6.000,0.300,1.000,0.500,1.000,1.000,0,5.000,0
"05/07/08","22:07:31",54.000,"cc",28288.522,6,0.100,44.000,0.200,10.000,0.300,0,0.500,0,1.000,0,5.000,0
"05/07/08","22:07:37",54.000,"cc",28387.498,6,0.100,46.000,0.200,6.000,0.300,2.000,0.500,0,1.000,0,5.000,0
"05/07/08","22:07:43",68.000,"cc",28304.316,6,0.100,63.000,0.200,4.000,0.300,1.000,0.500,0,1.000,0,5.000,0
"05/07/08","22:07:49",69.000,"cc",28341.619,6,0.100,58.000,0.200,8.000,0.300,2.000,0.500,1.000,1.000,0,5.000,0
"05/07/08","22:07:55",56.000,"cc",28297.061,6,0.100,50.000,0.200,4.000,0.300,2.000,0.500,0,1.000,0,5.000,0
"05/07/08","22:08:01",58.000,"cc",28326.807,6,0.100,52.000,0.200,5.000,0.300,1.000,0.500,0,1.000,0,5.000,0
"05/07/08","22:08:07",48.000,"cc",28329.402,6,0.100,41.000,0.200,7.000,0.300,0,0.500,0,1.000,0,5.000,0
"05/07/08","22:08:13",54.000,"cc",28356.315,6,0.100,43.000,0.200,8.000,0.300,2.000,0.500,1.000,1.000,0,5.000,0
"05/07/08","22:08:19",62.000,"cc",28326.336,6,0.100,55.000,0.200,5.000,0.300,1.000,0.500,1.000,1.000,0,5.000,0
"05/07/08","22:08:25",54.000,"cc",28247.152,6,0.100,45.000,0.200,8.000,0.300,1.000,0.500,0,1.000,0,5.000,0
"05/07/08","22:08:31",68.000,"cc",28294.609,6,0.100,59.000,0.200,8.000,0.300,1.000,0.500,0,1.000,0,5.000,0
"05/07/08","22:08:37",63.000,"cc",28261.313,6,0.100,56.000,0.200,6.000,0.300,1.000,0.500,0,1.000,0,5.000,0
"05/07/08","22:08:43",59.000,"cc",28329.949,6,0.100,52.000,0.200,6.000,0.300,1.000,0.500,0,1.000,0,5.000,0
"05/07/08","22:08:49",52.000,"cc",28306.162,6,0.100,41.000,0.200,7.000,0.300,4.000,0.500,0,1.000,0,5.000,0
"05/07/08","22:08:55",54.000,"cc",28352.451,6,0.100,47.000,0.200,5.000,0.300,2.000,0.500,0,1.000,0,5.000,0
"05/07/08","22:09:01",59.000,"cc",28344.139,6,0.100,45.000,0.200,10.000,0.300,3.000,0.500,1.000,1.000,0,5.000,0
"05/07/08","22:09:07",95.000,"cc",28303.891,6,0.100,74.000,0.200,20.000,0.300,1.000,0.500,0,1.000,0,5.000,0
"05/07/08","22:09:13",68.000,"cc",28297.770,6,0.100,62.000,0.200,4.000,0.300,2.000,0.500,0,1.000,0,5.000,0
"05/07/08","22:09:19",136.000,"cc",28353.916,6,0.100,109.000,0.200,22.000,0.300,5.000,0.500,0,1.000,0,5.000,0
"05/07/08","22:09:25",110.000,"cc",28320.650,6,0.100,96.000,0.200,12.000,0.300,2.000,0.500,0,1.000,0,5.000,0
"05/07/08","22:09:31",152.000,"cc",28312.363,6,0.100,129.000,0.200,21.000,0.300,2.000,0.500,0,1.000,0,5.000,0
"05/07/08","22:09:37",163.000,"cc",28292.627,6,0.100,145.000,0.200,17.000,0.300,1.000,0.500,0,1.000,0,5.000,0
"05/07/08","22:09:43",193.000,"cc",28260.248,6,0.100,165.000,0.200,27.000,0.300,0,0.500,1.000,1.000,0,5.000,0
"05/07/08","22:09:49",191.000,"cc",28361.373,6,0.100,162.000,0.200,27.000,0.300,2.000,0.500,0,1.000,0,5.000,0
"05/07/08","22:09:55",294.000,"cc",28302.598,6,0.100,237.000,0.200,50.000,0.300,7.000,0.500,0,1.000,0,5.000,0
"05/07/08","22:10:01",290.000,"cc",28276.797,6,0.100,249.000,0.200,38.000,0.300,3.000,0.500,0,1.000,0,5.000,0
"05/07/08","22:10:07",194.000,"cc",28308.842,6,0.100,165.000,0.200,22.000,0.300,7.000,0.500,0,1.000,0,5.000,0
"05/07/08","22:10:13",165.000,"cc",28348.893,6,0.100,140.000,0.200,24.000,0.300,1.000,0.500,0,1.000,0,5.000,0
"05/07/08","22:10:19",125.000,"cc",28327.617,6,0.100,109.000,0.200,14.000,0.300,2.000,0.500,0,1.000,0,5.000,0
"05/07/08","22:10:25",133.000,"cc",28296.348,6,0.100,107.000,0.200,24.000,0.300,1.000,0.500,1.000,1.000,0,5.000,0
"05/07/08","22:10:31",136.000,"cc",28298.951,6,0.100,116.000,0.200,20.000,0.300,0,0.500,0,1.000,0,5.000,0
"05/07/08","22:10:37",125.000,"cc",28319.574,6,0.100,108.000,0.200,16.000,0.300,1.000,0.500,0,1.000,0,5.000,0
"05/07/08","22:10:43",118.000,"cc",28287.510,6,0.100,95.000,0.200,22.000,0.300,1.000,0.500,0,1.000,0,5.000,0
"05/07/08","22:10:49",101.000,"cc",28325.367,6,0.100,91.000,0.200,8.000,0.300,2.000,0.500,0,1.000,0,5.000,0
"05/07/08","22:10:55",102.000,"cc",28308.627,6,0.100,81.000,0.200,18.000,0.300,3.000,0.500,0,1.000,0,5.000,0
"05/07/08","22:11:01",79.000,"cc",28373.852,6,0.100,69.000,0.200,9.000,0.300,1.000,0.500,0,1.000,0,5.000,0
"05/07/08","22:11:07",82.000,"cc",28279.434,6,0.100,72.000,0.200,8.000,0.300,1.000,0.500,1.000,1.000,0,5.000,0
"05/07/08","22:11:13",66.000,"cc",28309.488,6,0.100,58.000,0.200,7.000,0.300,1.000,0.500,0,1.000,0,5.000,0
"05/07/08","22:11:19",91.000,"cc",28339.283,6,0.100,76.000,0.200,14.000,0.300,1.000,0.500,0,1.000,0,5.000,0
"05/07/08","22:11:25",178.000,"cc",28270.727,6,0.100,145.000,0.200,30.000,0.300,3.000,0.500,0,1.000,0,5.000,0
"05/07/08","22:11:31",125.000,"cc",28313.408,6,0.100,110.000,0.200,14.000,0.300,1.000,0.500,0,1.000,0,5.000,0
"05/07/08","22:11:37",121.000,"cc",28359.359,6,0.100,103.000,0.200,17.000,0.300,1.000,0.500,0,1.000,0,5.000,0
"05/07/08","22:11:43",90.000,"cc",28300.645,6,0.100,77.000,0.200,10.000,0.300,3.000,0.500,0,1.000,0,5.000,0
"05/07/08","22:11:49",104.000,"cc",28372.279,6,0.100,91.000,0.200,12.000,0.300,0,0.500,1.000,1.000,0,5.000,0
"05/07/08","22:11:55",88.000,"cc",28278.990,6,0.100,77.000,0.200,10.000,0.300,1.000,0.500,0,1.000,0,5.000,0
"05/07/08","22:12:01",61.000,"cc",28260.182,6,0.100,53.000,0.200,6.000,0.300,2.000,0.500,0,1.000,0,5.000,0
"05/07/08","22:12:07",80.000,"cc",28321.502,6,0.100,71.000,0.200,9.000,0.300,0,0.500,0,1.000,0,5.000,0
"05/07/08","22:12:13",78.000,"cc",28330.877,6,0.100,68.000,0.200,9.000,0.300,1.000,0.500,0,1.000,0,5.000,0
"05/07/08","22:12:19",86.000,"cc",28285.289,6,0.100,82.000,0.200,3.000,0.300,1.000,0.500,0,1.000,0,5.000,0
"05/07/08","22:12:25",76.000,"cc",28336.264,6,0.100,68.000,0.200,6.000,0.300,0,0.500,2.000,1.000,0,5.000,0
"05/07/08","22:12:31",60.000,"cc",28271.748,6,0.100,51.000,0.200,9.000,0.300,0,0.500,0,1.000,0,5.000,0
"05/07/08","22:12:37",73.000,"cc",28391.947,6,0.100,62.000,0.200,8.000,0.300,3.000,0.500,0,1.000,0,5.000,0
"05/07/08","22:12:43",72.000,"cc",28325.420,6,0.100,60.000,0.200,10.000,0.300,0,0.500,2.000,1.000,0,5.000,0
"05/07/08","22:12:49",66.000,"cc",28297.770,6,0.100,57.000,0.200,9.000,0.300,0,0.500,0,1.000,0,5.000,0
"05/07/08","22:12:55",74.000,"cc",28345.231,6,0.100,69.000,0.200,3.000,0.300,2.000,0.500,0,1.000,0,5.000,0
"05/07/08","22:13:01",49.000,"cc",28246.479,6,0.100,35.000,0.200,11.000,0.300,2.000,0.500,1.000,1.000,0,5.000,0
"05/07/08","22:13:07",84.000,"cc",28275.691,6,0.100,73.000,0.200,10.000,0.300,1.000,0.500,0,1.000,0,5.000,0
"05/07/08","22:13:13",59.000,"cc",28367.371,6,0.100,54.000,0.200,5.000,0.300,0,0.500,0,1.000,0,5.000,0
"05/07/08","22:13:19",55.000,"cc",28319.352,6,0.100,45.000,0.200,9.000,0.300,1.000,0.500,0,1.000,0,5.000,0
"05/07/08","22:13:25",60.000,"cc",28336.080,6,0.100,51.000,0.200,8.000,0.300,1.000,0.500,0,1.000,0,5.000,0
"05/07/08","22:13:31",58.000,"cc",28323.190,6,0.100,48.000,0.200,8.000,0.300,1.000,0.500,1.000,1.000,0,5.000,0
"05/07/08","22:13:37",55.000,"cc",28341.434,6,0.100,48.000,0.200,7.000,0.300,0,0.500,0,1.000,0,5.000,0
"05/07/08","22:13:43",55.000,"cc",28328.580,6,0.100,51.000,0.200,3.000,0.300,1.000,0.500,0,1.000,0,5.000,0
"05/07/08","22:13:49",40.000,"cc",28333.857,6,0.100,36.000,0.200,3.000,0.300,1.000,0.500,0,1.000,0,5.000,0
"05/07/08","22:13:55",50.000,"cc",28252.221,6,0.100,45.000,0.200,3.000,0.300,2.000,0.500,0,1.000,0,5.000,0
"05/07/08","22:14:01",59.000,"cc",28312.361,6,0.100,50.000,0.200,8.000,0.300,1.000,0.500,0,1.000,0,5.000,0
"05/07/08","22:14:07",50.000,"cc",28361.748,6,0.100,46.000,0.200,4.000,0.300,0,0.500,0,1.000,0,5.000,0
"05/07/08","22:14:13",56.000,"cc",28305.209,6,0.100,51.000,0.200,3.000,0.300,1.000,0.500,1.000,1.000,0,5.000,0
"05/07/08","22:14:19",58.000,"cc",28330.369,6,0.100,53.000,0.200,3.000,0.300,2.000,0.500,0,1.000,0,5.000,0
"05/07/08","22:14:25",30.000,"cc",28298.141,6,0.100,26.000,0.200,4.000,0.300,0,0.500,0,1.000,0,5.000,0
"05/07/08","22:14:31",42.000,"cc",28268.346,6,0.100,38.000,0.200,4.000,0.300,0,0.500,0,1.000,0,5.000,0
"05/07/08","22:14:37",48.000,"cc",28352.262,6,0.100,39.000,0.200,8.000,0.300,1.000,0.500,0,1.000,0,5.000,0
"05/07/08","22:14:43",38.000,"cc",28339.928,6,0.100,36.000,0.200,2.000,0.300,0,0.500,0,1.000,0,5.000,0
"05/07/08","22:14:49",42.000,"cc",28242.977,6,0.100,38.000,0.200,4.000,0.300,0,0.500,0,1.000,0,5.000,0
"05/07/08","22:14:55",40.000,"cc",28322.260,6,0.100,37.000,0.200,3.000,0.300,0,0.500,0,1.000,0,5.000,0
"05/07/08","22:15:01",41.000,"cc",28329.686,6,0.100,35.000,0.200,6.000,0.300,0,0.500,0,1.000,0,5.000,0
"05/07/08","22:15:07",42.000,"cc",28222.793,6,0.100,37.000,0.200,4.000,0.300,1.000,0.500,0,1.000,0,5.000,0
"05/07/08","22:15:13",48.000,"cc",28405.918,6,0.100,38.000,0.200,6.000,0.300,3.000,0.500,1.000,1.000,0,5.000,0
"05/07/08","22:15:19",43.000,"cc",28309.617,6,0.100,35.000,0.200,6.000,0.300,2.000,0.500,0,1.000,0,5.000,0
"05/07/08","22:15:25",29.000,"cc",28351.576,6,0.100,29.000,0.200,0,0.300,0,0.500,0,1.000,0,5.000,0
"05/07/08","22:15:31",47.000,"cc",28330.406,6,0.100,42.000,0.200,4.000,0.300,0,0.500,1.000,1.000,0,5.000,0
"05/07/08","22:15:37",41.000,"cc",28228.309,6,0.100,36.000,0.200,4.000,0.300,1.000,0.500,0,1.000,0,5.000,0
"05/07/08","22:15:43",43.000,"cc",28287.123,6,0.100,37.000,0.200,5.000,0.300,1.000,0.500,0,1.000,0,5.000,0
"05/07/08","22:15:49",48.000,"cc",28376.137,6,0.100,43.000,0.200,3.000,0.300,1.000,0.500,1.000,1.000,0,5.000,0
"05/07/08","22:15:55",44.000,"cc",28355.152,6,0.100,37.000,0.200,5.000,0.300,1.000,0.500,1.000,1.000,0,5.000,0
"05/07/08","22:16:01",44.000,"cc",28280.951,6,0.100,34.000,0.200,9.000,0.300,1.000,0.500,0,1.000,0,5.000,0
"05/07/08","22:16:07",57.000,"cc",28384.707,6,0.100,47.000,0.200,7.000,0.300,3.000,0.500,0,1.000,0,5.000,0
"05/07/08","22:16:13",43.000,"cc",28314.346,6,0.100,33.000,0.200,8.000,0.300,2.000,0.500,0,1.000,0,5.000,0
"05/07/08","22:16:19",41.000,"cc",28252.147,6,0.100,36.000,0.200,4.000,0.300,0,0.500,1.000,1.000,0,5.000,0
"05/07/08","22:16:25",53.000,"cc",28334.471,6,0.100,49.000,0.200,4.000,0.300,0,0.500,0,1.000,0,5.000,0
"05/07/08","22:16:31",61.000,"cc",28364.590,6,0.100,55.000,0.200,6.000,0.300,0,0.500,0,1.000,0,5.000,0
"05/07/08","22:16:37",55.000,"cc",28297.361,6,0.100,49.000,0.200,5.000,0.300,0,0.500,1.000,1.000,0,5.000,0
"05/07/08","22:16:43",44.000,"cc",28332.266,6,0.100,40.000,0.200,4.000,0.300,0,0.500,0,1.000,0,5.000,0
"05/07/08","22:16:49",45.000,"cc",28305.107,6,0.100,37.000,0.200,4.000,0.300,4.000,0.500,0,1.000,0,5.000,0
"05/07/08","22:16:55",50.000,"cc",28312.320,6,0.100,42.000,0.200,6.000,0.300,2.000,0.500,0,1.000,0,5.000,0
"05/07/08","22:17:01",44.000,"cc",28242.426,6,0.100,38.000,0.200,6.000,0.300,0,0.500,0,1.000,0,5.000,0
"05/07/08","22:17:07",58.000,"cc",28281.152,6,0.100,52.000,0.200,6.000,0.300,0,0.500,0,1.000,0,5.000,0
"05/07/08","22:17:13",67.000,"cc",28352.418,6,0.100,62.000,0.200,4.000,0.300,1.000,0.500,0,1.000,0,5.000,0
"05/07/08","22:17:19",80.000,"cc",28305.883,6,0.100,66.000,0.200,13.000,0.300,1.000,0.500,0,1.000,0,5.000,0
"05/07/08","22:17:25",71.000,"cc",28317.549,6,0.100,63.000,0.200,7.000,0.300,0,0.500,1.000,1.000,0,5.000,0
"05/07/08","22:17:31",60.000,"cc",28331.023,6,0.100,52.000,0.200,6.000,0.300,1.000,0.500,1.000,1.000,0,5.000,0
"05/07/08","22:17:37",87.000,"cc",28400.586,6,0.100,71.000,0.200,9.000,0.300,6.000,0.500,1.000,1.000,0,5.000,0
"05/07/08","22:17:43",67.000,"cc",28333.695,6,0.100,60.000,0.200,5.000,0.300,1.000,0.500,1.000,1.000,0,5.000,0
"05/07/08","22:17:49",74.000,"cc",28297.147,6,0.100,60.000,0.200,14.000,0.300,0,0.500,0,1.000,0,5.000,0
"05/07/08","22:17:55",83.000,"cc",28290.082,6,0.100,71.000,0.200,11.000,0.300,1.000,0.500,0,1.000,0,5.000,0
"05/07/08","22:18:01",67.000,"cc",28310.867,6,0.100,60.000,0.200,7.000,0.300,0,0.500,0,1.000,0,5.000,0
"05/07/08","22:18:07",120.000,"cc",28324.648,6,0.100,101.000,0.200,16.000,0.300,3.000,0.500,0,1.000,0,5.000,0
"05/07/08","22:18:13",103.000,"cc",28269.422,6,0.100,87.000,0.200,12.000,0.300,4.000,0.500,0,1.000,0,5.000,0
"05/07/08","22:18:19",108.000,"cc",28318.617,6,0.100,88.000,0.200,19.000,0.300,0,0.500,1.000,1.000,0,5.000,0
"05/07/08","22:18:25",97.000,"cc",28319.180,6,0.100,86.000,0.200,10.000,0.300,0,0.500,1.000,1.000,0,5.000,0
"05/07/08","22:18:31",136.000,"cc",28310.477,6,0.100,121.000,0.200,15.000,0.300,0,0.500,0,1.000,0,5.000,0
"05/07/08","22:18:37",113.000,"cc",28384.430,6,0.100,97.000,0.200,12.000,0.300,2.000,0.500,2.000,1.000,0,5.000,0
"05/07/08","22:18:43",109.000,"cc",28326.352,6,0.100,94.000,0.200,14.000,0.300,1.000,0.500,0,1.000,0,5.000,0
"05/07/08","22:18:49",100.000,"cc",28257.135,6,0.100,86.000,0.200,10.000,0.300,4.000,0.500,0,1.000,0,5.000,0
"05/07/08","22:18:55",117.000,"cc",28264.033,6,0.100,94.000,0.200,21.000,0.300,2.000,0.500,0,1.000,0,5.000,0
"05/07/08","22:19:01",96.000,"cc",28331.596,6,0.100,80.000,0.200,13.000,0.300,3.000,0.500,0,1.000,0,5.000,0
"05/07/08","22:19:07",86.000,"cc",28391.576,6,0.100,77.000,0.200,9.000,0.300,0,0.500,0,1.000,0,5.000,0
"05/07/08","22:19:13",77.000,"cc",28312.627,6,0.100,66.000,0.200,11.000,0.300,0,0.500,0,1.000,0,5.000,0
"05/07/08","22:19:19",76.000,"cc",28330.232,6,0.100,66.000,0.200,8.000,0.300,2.000,0.500,0,1.000,0,5.000,0
"05/07/08","22:19:25",62.000,"cc",28291.170,6,0.100,55.000,0.200,3.000,0.300,4.000,0.500,0,1.000,0,5.000,0
"05/07/08","22:19:31",96.000,"cc",28340.727,6,0.100,81.000,0.200,13.000,0.300,2.000,0.500,0,1.000,0,5.000,0
"05/07/08","22:19:37",109.000,"cc",28379.834,6,0.100,93.000,0.200,14.000,0.300,2.000,0.500,0,1.000,0,5.000,0
"05/07/08","22:19:43",97.000,"cc",28228.545,6,0.100,90.000,0.200,6.000,0.300,1.000,0.500,0,1.000,0,5.000,0
"05/07/08","22:19:49",73.000,"cc",28364.438,6,0.100,64.000,0.200,7.000,0.300,2.000,0.500,0,1.000,0,5.000,0
"05/07/08","22:19:55",78.000,"cc",28339.512,6,0.100,65.000,0.200,10.000,0.300,2.000,0.500,1.000,1.000,0,5.000,0
"05/07/08","22:20:01",70.000,"cc",28346.986,6,0.100,59.000,0.200,8.000,0.300,1.000,0.500,2.000,1.000,0,5.000,0
"05/07/08","22:20:07",62.000,"cc",28266.191,6,0.100,54.000,0.200,7.000,0.300,1.000,0.500,0,1.000,0,5.000,0
"05/07/08","22:20:13",61.000,"cc",28284.492,6,0.100,57.000,0.200,4.000,0.300,0,0.500,0,1.000,0,5.000,0
"05/07/08","22:20:19",52.000,"cc",28306.166,6,0.100,41.000,0.200,8.000,0.300,2.000,0.500,0,1.000,1.000,5.000,0
"05/07/08","22:20:25",72.000,"cc",28254.672,6,0.100,61.000,0.200,6.000,0.300,5.000,0.500,0,1.000,0,5.000,0
"05/07/08","22:20:31",132.000,"cc",28306.973,6,0.100,111.000,0.200,19.000,0.300,2.000,0.500,0,1.000,0,5.000,0
"05/07/08","22:20:37",142.000,"cc",28379.647,6,0.100,125.000,0.200,15.000,0.300,2.000,0.500,0,1.000,0,5.000,0